[Date Prev][Date Next][Thread Prev][Thread Next] - [Date Index][Thread Index][Author Index]

2 Line ISS Keps 5-18



ISS
1 25544U 98067A   05137.80649352  .00030421  00000-0  23268-3 0  4969
2 25544 051.6459 056.5124 0006009 131.6564 344.5998 15.71858845370909
----
Via the sarex mailing list at AMSAT.ORG courtesy of AMSAT-NA.
To unsubscribe, send "unsubscribe sarex" to Majordomo@amsat.org



AMSAT Top AMSAT Home